Terug naar catalogus

STARLINK-37361

ActiefCommunicatieSSO
NORAD 69134·PAYLOAD·🇺🇸 United States

Gelanceerd May 20, 2026 vanaf Vandenberg Space Force Base

Loading…

Volgende Passages (komende 24 uur)

TLE

VersSource: CelesTrak SupGP

Epoch: Sep 14, 2026, 22:42 UTC

1 69134C 26110L   26257.94631944  .00085477  00000+0  26542-2 0  2573
2 69134  97.2851  93.0769 0001763  92.4023 300.2468 15.33386101    13

Volg STARLINK-37361 in realtime met AllMySat

Download on the App Store